WZZ655 LKPR-LZKZ

Flight info

Callsign WZZ655
Flight time 0h 56m
Altitude 29000
Route VOZ DCT LIKSA DCT UPLAV DCT MAKAL DCT TAKOS
Aircraft A320/M-SDE3FGHIRWY/LB1

Departure

Time 2026-04-22 17:46
Airport Václav Havel Airport Prague (LKPR)

Arrival

Time 2026-04-22 18:42
Airport Košice International Airport (LZKZ)
Time Latitude Longitude Altitude Speed Heading
2026-04-22 16:52 50.10908 14.26256 1173 ft 0 kts 124°
2026-04-22 17:38 50.10907 14.26260 1173 ft 1 kts 124°
2026-04-22 17:38 50.10899 14.26277 1170 ft 3 kts 124°
2026-04-22 17:38 50.10878 14.26305 1171 ft 6 kts 160°
2026-04-22 17:39 50.10821 14.26274 1172 ft 11 kts 212°
2026-04-22 17:39 50.10752 14.26202 1170 ft 13 kts 214°
2026-04-22 17:39 50.10583 14.26027 1171 ft 16 kts 212°
2026-04-22 17:40 50.10535 14.25981 1171 ft 7 kts 206°
2026-04-22 17:40 50.10492 14.25999 1173 ft 8 kts 139°
2026-04-22 17:40 50.10447 14.26086 1171 ft 13 kts 127°
2026-04-22 17:40 50.10384 14.26215 1174 ft 17 kts 127°
2026-04-22 17:41 50.10312 14.26365 1174 ft 18 kts 127°
2026-04-22 17:41 50.10235 14.26524 1172 ft 19 kts 127°
2026-04-22 17:41 50.10153 14.26693 1177 ft 20 kts 126°
2026-04-22 17:41 50.10076 14.26852 1188 ft 16 kts 124°
2026-04-22 17:42 50.10017 14.26978 1195 ft 13 kts 127°
2026-04-22 17:42 50.09962 14.27087 1199 ft 14 kts 127°
2026-04-22 17:42 50.09918 14.27179 1201 ft 17 kts 126°
2026-04-22 17:42 50.09796 14.27400 1204 ft 22 kts 136°
2026-04-22 17:43 50.09689 14.27565 1206 ft 22 kts 134°
2026-04-22 17:43 50.09580 14.27732 1211 ft 22 kts 136°
2026-04-22 17:43 50.09472 14.27899 1215 ft 22 kts 136°
2026-04-22 17:43 50.09359 14.28069 1214 ft 24 kts 135°
2026-04-22 17:44 50.09278 14.28194 1214 ft 24 kts 135°
2026-04-22 17:44 50.09173 14.28284 1211 ft 17 kts 193°
2026-04-22 17:44 50.09088 14.28185 1210 ft 16 kts 228°
2026-04-22 17:44 50.09103 14.28049 1209 ft 3 kts 308°
2026-04-22 17:45 50.09117 14.28021 1209 ft 3 kts 309°
2026-04-22 17:45 50.09146 14.27962 1211 ft 21 kts 307°
2026-04-22 17:45 50.09375 14.27486 1210 ft 87 kts 307°
2026-04-22 17:45 50.09840 14.26525 1206 ft 135 kts 306°
2026-04-22 17:46 50.10479 14.25204 1401 ft 160 kts 310°
2026-04-22 17:46 50.11151 14.23809 2108 ft 162 kts 310°
2026-04-22 17:46 50.11827 14.22386 2751 ft 164 kts 309°
2026-04-22 17:46 50.12534 14.20913 3243 ft 175 kts 310°
2026-04-22 17:47 50.13298 14.19336 3533 ft 194 kts 310°
2026-04-22 17:47 50.14160 14.17550 3806 ft 220 kts 310°
2026-04-22 17:47 50.15134 14.15527 4190 ft 245 kts 309°
2026-04-22 17:47 50.16181 14.13351 4936 ft 255 kts 309°
2026-04-22 17:48 50.17254 14.11119 5803 ft 260 kts 309°
2026-04-22 17:48 50.18329 14.08833 6718 ft 263 kts 305°
2026-04-22 17:48 50.18993 14.06122 7445 ft 277 kts 279°
2026-04-22 17:48 50.18734 14.03102 8250 ft 289 kts 249°
2026-04-22 17:49 50.17558 14.00543 9070 ft 296 kts 220°
2026-04-22 17:49 50.15718 13.99094 9885 ft 302 kts 191°
2026-04-22 17:49 50.13637 13.99211 10604 ft 303 kts 159°
2026-04-22 17:49 50.11852 14.00882 11221 ft 306 kts 134°
2026-04-22 17:50 50.10270 14.03289 11338 ft 331 kts 132°
2026-04-22 17:50 50.08568 14.05893 11493 ft 353 kts 133°
2026-04-22 17:50 50.06777 14.08603 11963 ft 363 kts 133°
2026-04-22 17:50 50.04951 14.11338 12638 ft 367 kts 133°
2026-04-22 17:51 50.03104 14.14092 13339 ft 370 kts 133°
2026-04-22 17:51 50.01234 14.16872 14033 ft 373 kts 133°
2026-04-22 17:51 49.99352 14.19669 14653 ft 376 kts 133°
2026-04-22 17:51 49.97458 14.22491 15262 ft 378 kts 132°
2026-04-22 17:52 49.95557 14.25324 15867 ft 380 kts 132°
2026-04-22 17:52 49.93644 14.28170 16464 ft 382 kts 132°
2026-04-22 17:52 49.91715 14.31034 17072 ft 385 kts 132°
2026-04-22 17:52 49.89790 14.33925 17698 ft 386 kts 129°
2026-04-22 17:53 49.88251 14.37290 18261 ft 381 kts 112°
2026-04-22 17:53 49.87419 14.41154 18821 ft 378 kts 99°
2026-04-22 17:53 49.86849 14.45145 19376 ft 380 kts 99°
2026-04-22 17:53 49.86286 14.49155 19943 ft 381 kts 99°
2026-04-22 17:54 49.85726 14.53177 20506 ft 383 kts 99°
2026-04-22 17:54 49.85159 14.57233 21048 ft 385 kts 99°
2026-04-22 17:54 49.84586 14.61303 21570 ft 387 kts 99°
2026-04-22 17:54 49.84006 14.65389 22078 ft 389 kts 99°
2026-04-22 17:55 49.83419 14.69494 22575 ft 391 kts 99°
2026-04-22 17:55 49.82829 14.73612 23074 ft 393 kts 99°
2026-04-22 17:55 49.82233 14.77757 23544 ft 395 kts 99°
2026-04-22 17:55 49.81632 14.81920 23986 ft 397 kts 99°
2026-04-22 17:56 49.81031 14.86093 24376 ft 398 kts 99°
2026-04-22 17:56 49.80424 14.90279 24801 ft 399 kts 99°
2026-04-22 17:56 49.79814 14.94471 25226 ft 399 kts 99°
2026-04-22 17:56 49.79202 14.98666 25637 ft 400 kts 100°
2026-04-22 17:57 49.78563 15.02868 26051 ft 401 kts 101°
2026-04-22 17:57 49.77904 15.07067 26482 ft 402 kts 101°
2026-04-22 17:57 49.77237 15.11264 26912 ft 402 kts 101°
2026-04-22 17:57 49.76565 15.15467 27334 ft 403 kts 101°
2026-04-22 17:58 49.75889 15.19675 27727 ft 404 kts 101°
2026-04-22 17:58 49.75210 15.23893 28167 ft 404 kts 101°
2026-04-22 17:58 49.74537 15.28093 28768 ft 400 kts 101°
2026-04-22 17:58 49.73871 15.32258 29165 ft 397 kts 101°
2026-04-22 17:59 49.73209 15.36407 29236 ft 398 kts 101°
2026-04-22 17:59 49.71884 15.44712 29235 ft 398 kts 101°
2026-04-22 18:00 49.70771 15.51622 29229 ft 398 kts 101°
2026-04-22 18:00 49.69195 15.61321 29240 ft 398 kts 101°
2026-04-22 18:01 49.67853 15.69556 29221 ft 398 kts 101°
2026-04-22 18:01 49.66499 15.77843 29233 ft 397 kts 101°
2026-04-22 18:02 49.65145 15.86096 29220 ft 397 kts 101°
2026-04-22 18:02 49.63777 15.94340 29227 ft 396 kts 101°
2026-04-22 18:03 49.62407 16.02559 29226 ft 396 kts 101°
2026-04-22 18:03 49.61034 16.10780 29226 ft 396 kts 101°
2026-04-22 18:04 49.59649 16.19012 29218 ft 396 kts 101°
2026-04-22 18:04 49.58265 16.27226 29215 ft 396 kts 101°
2026-04-22 18:05 49.56876 16.35446 29210 ft 396 kts 101°
2026-04-22 18:05 49.55478 16.43648 29205 ft 396 kts 101°
2026-04-22 18:06 49.54075 16.51848 29208 ft 396 kts 101°
2026-04-22 18:06 49.52671 16.60048 29203 ft 396 kts 101°
2026-04-22 18:07 49.51494 16.66851 29205 ft 396 kts 101°
2026-04-22 18:07 49.49839 16.76418 29202 ft 396 kts 101°
2026-04-22 18:08 49.48417 16.84598 29201 ft 396 kts 101°
2026-04-22 18:08 49.46983 16.92775 29202 ft 396 kts 101°
2026-04-22 18:09 49.45544 17.00945 29198 ft 396 kts 101°
2026-04-22 18:09 49.44047 17.09092 29195 ft 398 kts 105°
2026-04-22 18:10 49.42092 17.17059 29195 ft 399 kts 107°
2026-04-22 18:10 49.40030 17.24984 29196 ft 399 kts 107°
2026-04-22 18:11 49.37978 17.32849 29194 ft 399 kts 107°
2026-04-22 18:11 49.35938 17.40758 29194 ft 399 kts 107°
2026-04-22 18:12 49.33900 17.48684 29197 ft 399 kts 107°
2026-04-22 18:12 49.32187 17.55298 29195 ft 399 kts 107°
2026-04-22 18:13 49.29825 17.64488 29193 ft 399 kts 107°
2026-04-22 18:13 49.27797 17.72389 29193 ft 399 kts 107°
2026-04-22 18:14 49.25759 17.80298 29190 ft 399 kts 107°
2026-04-22 18:14 49.23708 17.88187 29196 ft 399 kts 107°
2026-04-22 18:15 49.21654 17.96072 29200 ft 399 kts 107°
2026-04-22 18:15 49.19590 18.03953 29190 ft 399 kts 107°
2026-04-22 18:16 49.17524 18.11817 29188 ft 399 kts 107°
2026-04-22 18:16 49.15454 18.19690 29190 ft 399 kts 107°
2026-04-22 18:17 49.13379 18.27554 29192 ft 399 kts 107°
2026-04-22 18:17 49.11286 18.35404 29192 ft 399 kts 107°
2026-04-22 18:18 49.09182 18.43248 29194 ft 399 kts 107°
2026-04-22 18:18 49.07091 18.51082 29197 ft 399 kts 107°
2026-04-22 18:19 49.04999 18.58915 29188 ft 399 kts 107°
2026-04-22 18:19 49.02899 18.66725 29185 ft 399 kts 107°
2026-04-22 18:20 49.01142 18.73230 29180 ft 398 kts 107°
2026-04-22 18:20 48.99023 18.81041 29182 ft 399 kts 107°
2026-04-22 18:21 48.96883 18.88899 29178 ft 399 kts 107°
2026-04-22 18:21 48.94757 18.96693 29176 ft 399 kts 107°
2026-04-22 18:22 48.92624 19.04488 29174 ft 399 kts 107°
2026-04-22 18:22 48.90484 19.12277 29167 ft 399 kts 107°
2026-04-22 18:23 48.88354 19.20005 29152 ft 399 kts 107°
2026-04-22 18:23 48.86204 19.27772 29029 ft 397 kts 107°
2026-04-22 18:24 48.84051 19.35541 26906 ft 404 kts 108°
2026-04-22 18:24 48.82943 19.39542 25937 ft 407 kts 108°
2026-04-22 18:24 48.80756 19.47383 24409 ft 405 kts 108°
2026-04-22 18:25 48.79659 19.51304 23681 ft 404 kts 108°
2026-04-22 18:25 48.78564 19.55216 22840 ft 402 kts 108°
2026-04-22 18:25 48.77473 19.59109 22050 ft 400 kts 109°
2026-04-22 18:26 48.75300 19.66825 20545 ft 396 kts 109°
2026-04-22 18:26 48.74221 19.70650 19829 ft 394 kts 109°
2026-04-22 18:26 48.73148 19.74460 19143 ft 393 kts 109°
2026-04-22 18:26 48.72077 19.78260 18518 ft 391 kts 109°
2026-04-22 18:27 48.71189 19.82117 17812 ft 385 kts 100°
2026-04-22 18:27 48.70544 19.86041 17121 ft 383 kts 100°
2026-04-22 18:27 48.69900 19.89933 16476 ft 380 kts 101°
2026-04-22 18:27 48.69258 19.93806 15752 ft 378 kts 101°
2026-04-22 18:28 48.68618 19.97652 15101 ft 376 kts 101°
2026-04-22 18:28 48.67978 20.01475 14488 ft 374 kts 101°
2026-04-22 18:28 48.67341 20.05281 14191 ft 373 kts 101°
2026-04-22 18:28 48.66704 20.09091 14116 ft 374 kts 101°
2026-04-22 18:29 48.66065 20.12914 14135 ft 375 kts 101°
2026-04-22 18:29 48.65427 20.16731 14135 ft 375 kts 101°
2026-04-22 18:29 48.64795 20.20547 14085 ft 372 kts 101°
2026-04-22 18:29 48.64169 20.24301 13171 ft 366 kts 101°
2026-04-22 18:30 48.63546 20.28016 12180 ft 364 kts 102°
2026-04-22 18:30 48.62282 20.35399 10701 ft 361 kts 103°
2026-04-22 18:30 48.61642 20.39063 10173 ft 359 kts 103°
2026-04-22 18:31 48.61005 20.42720 10008 ft 357 kts 103°
2026-04-22 18:31 48.60390 20.46236 10020 ft 337 kts 103°
2026-04-22 18:31 48.59807 20.49568 10029 ft 319 kts 103°
2026-04-22 18:31 48.59254 20.52722 10026 ft 302 kts 103°
2026-04-22 18:32 48.58726 20.55725 10029 ft 293 kts 103°
2026-04-22 18:32 48.58208 20.58690 10029 ft 292 kts 103°
2026-04-22 18:32 48.57691 20.61648 10025 ft 292 kts 103°
2026-04-22 18:32 48.57163 20.64647 10020 ft 291 kts 103°
2026-04-22 18:33 48.56642 20.67590 9710 ft 289 kts 103°
2026-04-22 18:33 48.56123 20.70518 9356 ft 288 kts 103°
2026-04-22 18:33 48.55614 20.73394 8961 ft 286 kts 102°
2026-04-22 18:33 48.55099 20.76321 8529 ft 284 kts 102°
2026-04-22 18:34 48.54602 20.79166 8144 ft 283 kts 102°
2026-04-22 18:34 48.54104 20.82027 7769 ft 281 kts 102°
2026-04-22 18:34 48.53604 20.84871 7385 ft 279 kts 102°
2026-04-22 18:34 48.53099 20.87730 6957 ft 278 kts 102°
2026-04-22 18:35 48.52604 20.90498 6540 ft 276 kts 102°
2026-04-22 18:35 48.52112 20.93267 6232 ft 267 kts 102°
2026-04-22 18:35 48.51643 20.95884 6098 ft 250 kts 102°
2026-04-22 18:35 48.51198 20.98368 5768 ft 242 kts 101°
2026-04-22 18:36 48.50759 21.00836 5373 ft 240 kts 101°
2026-04-22 18:36 48.50328 21.03260 4986 ft 239 kts 101°
2026-04-22 18:36 48.49907 21.05631 4699 ft 232 kts 101°
2026-04-22 18:36 48.49497 21.07936 4507 ft 219 kts 100°
2026-04-22 18:37 48.49107 21.10139 4268 ft 216 kts 100°
2026-04-22 18:37 48.48794 21.12338 4005 ft 212 kts 89°
2026-04-22 18:37 48.48825 21.13785 3842 ft 207 kts 76°
2026-04-22 18:37 48.49484 21.16411 3549 ft 195 kts 51°
2026-04-22 18:38 48.50354 21.17863 3504 ft 181 kts 35°
2026-04-22 18:38 48.51410 21.18828 3508 ft 176 kts 20°
2026-04-22 18:38 48.52581 21.19344 3317 ft 176 kts 11°
2026-04-22 18:39 48.54922 21.20149 2832 ft 171 kts 12°
2026-04-22 18:39 48.56053 21.20541 2620 ft 160 kts 11°
2026-04-22 18:39 48.57073 21.20894 2437 ft 142 kts 11°
2026-04-22 18:39 48.58014 21.21218 2215 ft 136 kts 12°
2026-04-22 18:40 48.58926 21.21538 1984 ft 133 kts 11°
2026-04-22 18:40 48.59828 21.21851 1779 ft 132 kts 11°
2026-04-22 18:40 48.60727 21.22164 1635 ft 133 kts 12°
2026-04-22 18:40 48.61629 21.22478 1444 ft 133 kts 12°
2026-04-22 18:41 48.62536 21.22794 1263 ft 135 kts 12°
2026-04-22 18:41 48.63453 21.23110 1088 ft 136 kts 13°
2026-04-22 18:41 48.64372 21.23436 920 ft 135 kts 12°
2026-04-22 18:41 48.65277 21.23751 759 ft 126 kts 13°
2026-04-22 18:42 48.65971 21.23996 756 ft 78 kts 13°
2026-04-22 18:42 48.66365 21.24134 755 ft 49 kts 13°
2026-04-22 18:42 48.66682 21.24244 758 ft 44 kts 13°
2026-04-22 18:42 48.66967 21.24347 757 ft 41 kts 13°
2026-04-22 18:43 48.67176 21.24418 759 ft 15 kts
2026-04-22 18:43 48.67246 21.24299 757 ft 18 kts 285°
2026-04-22 18:43 48.67247 21.24191 753 ft 7 kts 237°
2026-04-22 18:43 48.67198 21.24151 756 ft 9 kts 202°
2026-04-22 18:44 48.67178 21.24135 755 ft 4 kts 223°
2026-04-22 18:44 48.67176 21.24083 756 ft 6 kts 275°
2026-04-22 18:44 48.67186 21.24007 757 ft 9 kts 284°
2026-04-22 18:44 48.67192 21.23973 753 ft 2 kts 283°
2026-04-22 18:45 48.67197 21.23942 755 ft 4 kts 283°
2026-04-22 18:45 48.67218 21.23911 756 ft 5 kts 359°
2026-04-22 18:45 48.67248 21.23923 757 ft 2 kts 14°
2026-04-22 18:45 48.67255 21.23926 755 ft 0 kts 14°
2026-04-22 18:46 48.67256 21.23926 755 ft 0 kts 14°